This is the latest recevied weather packets stored in our database for station/object KD8JAM. If no packets are shown the sender has not sent any weather packets the latest 10 day(s).
| Time | Temp. | Humidity | Pressure | Rain* | Wind** | Luminosity | Snow |
|---|---|---|---|---|---|---|---|
| 1777494491 | 4.44° C | 82% | 1016.5 hPa | 0 mm | - | 87 W/m² | - |
| 1777494188 | 5° C | 81% | 1016.5 hPa | 0 mm | - | 85 W/m² | - |
| 1777493885 | 5° C | 80% | 1016.8 hPa | 0 mm | - | 78 W/m² | - |
| 1777493583 | 5° C | 79% | 1016.6 hPa | 0 mm | - | 146 W/m² | - |
| 1777493281 | 5° C | 80% | 1016.6 hPa | 0 mm | - | 224 W/m² | - |
| 1777492976 | 5.56° C | 79% | 1016.6 hPa | 0 mm | - | 254 W/m² | - |
| 1777492674 | 5° C | 79% | 1016.6 hPa | 0 mm | - | 268 W/m² | - |
| 1777492373 | 5° C | 79% | 1016.8 hPa | 0 mm | - | 287 W/m² | - |
| 1777492071 | 5° C | 79% | 1016.5 hPa | 0 mm | - | 304 W/m² | - |
| 1777491768 | 5° C | 81% | 1016.9 hPa | 0 mm | - | 279 W/m² | - |
| 1777491464 | 5° C | 80% | 1016.6 hPa | 0 mm | - | 639 W/m² | - |
| 1777491162 | 5° C | 82% | 1016.8 hPa | 0 mm | - | 547 W/m² | - |
| 1777490857 | 4.44° C | 82% | 1016.8 hPa | 0 mm | - | 281 W/m² | - |
| 1777490553 | 4.44° C | 82% | 1017 hPa | 0 mm | - | 244 W/m² | - |
| 1777490250 | 5° C | 82% | 1016.6 hPa | 0 mm | - | 266 W/m² | - |
| 1777489948 | 4.44° C | 83% | 1016.6 hPa | 0 mm | - | 337 W/m² | - |
| 1777489646 | 5° C | 83% | 1016.9 hPa | 0 mm | - | 437 W/m² | - |
| 1777489341 | 5° C | 80% | 1016.8 hPa | 0 mm | - | 329 W/m² | - |
| 1777489039 | 4.44° C | 83% | 1016.7 hPa | 0 mm | - | 351 W/m² | - |
| 1777488735 | 5° C | 84% | 1016.5 hPa | 0 mm | - | 354 W/m² | - |
| 1777488433 | 5° C | 84% | 1016.7 hPa | 0 mm | - | 345 W/m² | - |
| 1777488131 | 5° C | 83% | 1016.6 hPa | 0 mm | - | 347 W/m² | - |
| 1777487829 | 5° C | 83% | 1016.7 hPa | 0 mm | - | 386 W/m² | - |
| 1777487527 | 5° C | 84% | 1016.5 hPa | 0 mm | - | 334 W/m² | - |
| 1777487224 | 5° C | 83% | 1016.7 hPa | 0 mm | - | 289 W/m² | - |
* Rain latest hour (hover to see other rain measurements)
** Current wind speed in m/s (hover to see current wind gust speed)